Vertical_Velocity
-0 -1 -1 0 -1 -1 -2 -2 -2 -1 -1 -1 0 -0 1 1 2 1 0 -1 -1 -1 -1 -2 -1 -4 -3 -2 8 -4 -1 -2 -0 1 3 3 2 7 -2 2 6 -7 8 2 2 2 2
-1 -1 0 -0 -1 -2 -1 -1 -1 -1 -1 -1 0 -1 -2 -1 2 2 -0 -2 1 2 -1 -2 -0 -0 -1 1 -1 2 2 1 -0 0 4 3 2 9 5 3 4 5 9 8 6 5 2
-2 -2 -0 -1 -2 -2 -1 -1 -2 -3 -2 -2 -2 1 0 -3 -0 1 4 -2 -1 -2 1 -1 -2 -1 -3 7 -1 -3 0 2 2 2 2 3 7 2 6 3 5 -0 -3 6 10 1 -10
-0 -1 -1 -1 -1 -0 -1 -3 -2 -0 -0 -0 0 1 -3 -2 -3 -0 -1 -2 -1 -0 1 1 0 1 7 0 1 1 1 -0 1 1 3 4 4 7 5 2 3 1 3 -2 3 12 4
-0 0 -0 -0 -2 -2 -2 -1 -1 -0 0 -1 -1 -0 -2 -1 -1 2 -1 -2 -2 -3 -1 -1 1 -0 -2 -2 1 -0 -0 2 1 3 3 2 3 4 9 4 3 1 -12 1 3 -3 7
-1 -0 -0 -1 -1 -0 -2 -1 -1 -1 -1 -1 -1 -2 -2 -1 -2 -3 -3 -3 -1 -3 -3 -1 2 1 -0 4 0 2 3 2 1 2 -0 -2 3 5 6 8 -21 -12 -9 1 2 -1 -2
-1 -1 0 0 -0 -2 -1 -0 -1 -1 -1 -1 -3 -3 -2 -1 -2 -1 2 -1 -7 -3 -1 3 -0 5 1 0 -2 -0 0 1 2 -1 1 3 1 -9 1 -1 12 7 2 6 7 1 5
0 -1 1 -1 -2 -1 -2 -0 0 -2 -1 -2 -2 -1 -3 -1 -2 -3 -5 -1 -2 2 1 -1 1 1 3 2 2 3 0 -0 -3 -1 3 5 -7 4 7 4 5 5 3 -20 -1 -2 3
-1 -1 -1 -1 -1 -1 -1 -1 -2 -2 -2 -2 -1 -1 0 -2 -0 -0 -3 -3 1 -2 2 1 3 0 -8 -4 2 -0 -4 -1 1 1 2 6 4 13 18 9 9 6 5 7 -3 -6 -4
-1 -2 -1 -1 -0 -1 -0 -2 -1 -1 -1 -1 -2 -2 -3 -3 -0 -6 -5 -6 -4 1 -0 5 2 -0 1 1 1 -0 1 -0 -3 -2 -1 -1 1 1 1 4 8 -3 8 4 8 17 -3
-1 -2 -1 1 -0 -1 -2 -2 -2 -1 -1 -2 -2 -4 -6 -8 -0 -4 -4 -1 -5 1 -2 3 3 2 1 -1 -1 4 -1 -2 0 -4 3 -14 -3 -3 -0 -4 2 -7 9 -2 1 3 20
-0 -1 -0 -0 -2 -1 -2 -0 -1 1 -2 -2 -3 -5 -2 -0 -6 -1 -6 -3 -5 1 -9 -1 5 1 -7 -4 3 -2 -7 -3 -8 -1 9 7 4 1 3 2 3 2 -3 1 8 8 10
-1 -1 -0 -1 -2 -2 -1 -1 -2 -2 -4 -5 -5 -4 -8 -7 -7 -5 -5 -2 -3 -2 3 3 -6 -13 -4 -5 -1 -3 -7 -3 -5 -9 -13 -14 -3 0 1 -12 2 11 -7 0 8 10 -5
-1 -2 0 -1 -1 -2 -1 -3 -3 -3 -3 -5 -4 -2 -4 -5 -3 -5 -8 -3 -1 -0 -5 2 -3 5 0 -9 -4 -7 -10 -7 1 2 -3 0 -11 -11 -5 7 -3 -5 6 5 3 4 -5
-1 -1 -0 -1 -1 -1 -2 -1 -1 -2 -3 -4 -2 -3 -4 -5 -5 -4 -1 -2 -2 0 -0 -5 -8 -4 -4 -2 -5 -9 -6 1 6 7 4 0 -6 -15 10 3 9 3 2 10 3 -2 9
-1 -1 -1 -0 -1 -1 -2 -2 -0 -2 -3 -2 -6 -7 -5 -4 -6 -3 -3 -5 -2 -1 -2 4 0 -3 -2 -4 -6 2 -4 5 -0 5 11 4 -9 -8 -12 4 7 4 10 0 4 1 -2
0 -1 -2 -0 -1 -2 -2 -1 -1 -4 -2 -5 -4 -6 -5 -4 -5 -2 -11 -2 0 4 -3 2 1 -0 1 0 1 -2 -3 -1 5 -7 0 4 10 -20 2 3 -1 -6 -2 -9 6 2 1
-0 -2 -2 0 -1 -2 -1 -1 -3 -2 -1 -3 -5 -12 -7 -2 -11 -6 -1 -1 1 3 3 -0 -4 -0 2 3 -8 4 -2 5 13 1 -9 0 2 -5 -14 2 6 6 2 -0 1 -8 -3
-1 -2 -1 -2 -3 -1 -1 -4 -4 -5 -8 -6 -11 -7 -1 -6 -8 -2 3 1 -1 -3 1 -1 -0 2 8 8 -3 5 1 9 5 3 -3 -8 3 -1 -14 5 2 1 -5 2 -0 4 6
-1 -1 -3 -2 -3 -1 -1 -4 -2 -3 -4 -7 -6 -4 -4 -2 -2 2 -7 -2 -4 5 -1 1 -2 1 -4 -2 11 -22 -3 -4 2 -6 3 10 4 2 -0 -4 14 3 -0 -0 1 2 2
-1 -2 -2 -1 -1 -1 -3 -3 -2 -2 -6 -4 2 3 -2 -6 2 1 0 -0 -5 -7 -2 4 -5 4 11 -14 1 -3 7 9 -2 -2 3 2 -6 -1 12 7 2 2 1 1 -5 0 4
0 -1 -2 -2 -2 -2 -2 -1 -4 -0 -3 -0 -0 -3 -1 -2 -2 -0 -2 -6 -5 -9 7 -4 -5 8 6 1 11 -26 6 40 16 -2 2 5 -10 1 7 8 6 -4 2 2 2 -4 1
-1 -2 -2 -1 -1 -3 -3 -1 -2 -8 -0 6 -5 -4 -1 -1 -2 -4 2 6 3 1 2 9 22 -9 1 5 4 5 8 7 5 1 2 4 10 6 4 2 4 -5 -5 -2 -1 3 3
-1 -2 -2 -1 -3 -3 -1 -0 -5 -5 -2 -5 -2 -5 1 4 3 -1 -6 -0 -2 -2 -4 -3 -4 -2 -2 2 11 -0 3 5 4 0 1 -3 -2 11 -1 5 -5 1 1 -0 1 1 2
-2 -1 -2 -3 -2 -1 -1 -0 -4 -3 -2 -5 -2 -1 -4 -2 -1 10 1 -0 9 13 -3 -4 -0 0 -2 -2 -8 7 7 13 3 5 -3 -7 0 1 -1 -2 1 2 -0 1 1 0 2
-1 -2 -2 -2 -1 -2 -2 -2 -2 -4 -2 -3 -3 -3 -4 -3 -4 -3 -5 -8 -7 -9 -2 3 16 1 2 -6 -3 4 1 2 -2 3 0 8 2 2 -1 -4 -1 1 0 0 1 -1 -0
-2 -2 -1 -1 -2 -1 -2 -3 -2 -5 -1 -2 -4 -4 -8 0 -1 0 -4 -10 -2 2 0 -9 -16 -1 -5 -7 -3 -3 0 -0 -5 -5 -22 -19 -11 -10 -0 -2 -1 -0 -0 -1 0 -1 -0
-2 -2 -0 -1 1 -3 -2 -1 -2 -2 -4 -5 -3 -5 -4 -5 -3 -2 -2 1 3 2 -4 -2 -1 -2 -0 -4 -0 -0 -0 -3 0 1 -1 -2 -2 -3 1 -0 -0 0 1 1 -1 -1 -2
-1 -2 -0 -0 -4 -2 -1 -3 -4 -1 -6 -4 -3 -4 -4 -1 -4 -4 -4 -4 -4 -6 -2 -1 0 -2 -1 -1 1 1 0 0 -1 -1 -1 -2 -2 -1 0 -0 0 -0 -0 0 0 0 -1
Height
3127 3124 3122 3119 3117 3114 3111 3108 3104 3101 3097 3093 3089 3085 3081 3077 3073 3069 3065 3060 3057 3054 3051 3048 3045 3043 3040 3037 3037 3030 3029 3027 3025 3024 3025 3024 3024 3025 3020 3018 3019 3011 3011 3013 3017 3020 3021
3126 3124 3121 3118 3115 3113 3110 3106 3102 3098 3093 3090 3086 3082 3079 3074 3071 3067 3063 3058 3054 3049 3045 3042 3039 3036 3034 3031 3027 3025 3022 3020 3018 3017 3017 3017 3017 3019 3012 3011 3011 3006 3007 3005 3006 3009 3012
3125 3123 3120 3117 3114 3111 3108 3104 3099 3095 3091 3088 3084 3080 3076 3071 3067 3064 3060 3055 3051 3047 3042 3038 3034 3030 3027 3028 3020 3017 3014 3011 3009 3008 3008 3009 3009 3008 3007 3005 3003 3001 2998 2998 2994 3000 3001
3123 3121 3118 3115 3112 3108 3105 3101 3097 3093 3089 3085 3080 3076 3072 3067 3063 3059 3054 3049 3045 3041 3036 3032 3028 3024 3020 3016 3013 3008 3006 3003 3001 3000 3001 3001 3000 2998 2996 2998 2996 2995 2992 2988 2986 2993 2995
3122 3119 3116 3113 3110 3106 3102 3098 3094 3091 3087 3082 3077 3073 3068 3064 3059 3055 3050 3045 3040 3036 3030 3024 3019 3017 3011 3008 3005 3001 2998 2997 2994 2993 2993 2992 2992 2990 2990 2990 2990 2985 2976 2977 2981 2987 2991
3121 3117 3113 3110 3107 3103 3099 3096 3092 3088 3083 3078 3073 3068 3064 3059 3055 3051 3045 3040 3034 3030 3024 3017 3010 3011 3003 3001 2995 2993 2990 2987 2987 2987 2986 2986 2984 2981 2980 2982 2966 2974 2973 2973 2976 2980 2983
3119 3115 3111 3108 3104 3100 3097 3093 3089 3085 3080 3074 3069 3063 3058 3053 3047 3044 3042 3034 3030 3024 3018 3010 3004 2997 2993 2992 2986 2984 2982 2980 2979 2979 2980 2980 2977 2967 2972 2975 2972 2971 2969 2965 2970 2974 2975
3116 3113 3108 3105 3101 3097 3094 3090 3086 3081 3077 3072 3065 3059 3053 3048 3041 3034 3027 3026 3020 3016 3010 2999 2993 2990 2988 2985 2984 2978 2978 2977 2974 2973 2974 2974 2964 2969 2969 2968 2967 2966 2962 2949 2963 2968 2970
3114 3111 3107 3103 3098 3094 3091 3087 3083 3078 3071 3067 3064 3056 3050 3043 3038 3032 3025 3018 3011 3005 3001 2993 2987 2984 2985 2984 2978 2975 2974 2971 2970 2968 2968 2966 2965 2964 2962 2961 2960 2955 2954 2952 2955 2960 2959
3111 3108 3105 3101 3096 3092 3088 3083 3079 3074 3068 3062 3056 3053 3047 3041 3037 3028 3022 3015 3010 3003 2996 2992 2986 2981 2980 2979 2977 2973 2970 2970 2969 2964 2963 2960 2956 2956 2954 2951 2952 2945 2949 2948 2948 2951 2945
3108 3105 3102 3098 3094 3089 3084 3080 3074 3068 3064 3059 3052 3045 3039 3032 3027 3021 3015 3010 3006 3000 2998 2991 2987 2983 2979 2978 2974 2972 2968 2963 2961 2959 2961 2955 2953 2949 2947 2945 2945 2940 2941 2939 2938 2937 2941
3105 3102 3098 3095 3091 3086 3081 3076 3070 3064 3059 3053 3047 3040 3034 3030 3023 3017 3011 3005 3001 2999 2991 2989 2984 2980 2977 2973 2970 2964 2960 2960 2956 2952 2953 2950 2948 2946 2943 2941 2938 2934 2932 2930 2930 2929 2925
3102 3099 3094 3091 3087 3083 3077 3073 3067 3061 3055 3050 3043 3036 3029 3023 3017 3013 3007 3001 2999 2994 2994 2988 2981 2978 2976 2970 2967 2964 2958 2954 2954 2952 2949 2947 2945 2943 2942 2936 2934 2932 2928 2922 2919 2917 2910
3099 3095 3090 3087 3083 3078 3074 3068 3062 3057 3051 3046 3039 3035 3027 3020 3015 3009 3004 3000 2996 2993 2990 2988 2983 2979 2976 2970 2966 2962 2959 2956 2954 2954 2950 2946 2944 2944 2942 2938 2935 2928 2931 2928 2916 2904 2902
3095 3091 3088 3084 3079 3075 3070 3065 3058 3052 3047 3041 3036 3031 3025 3019 3014 3007 3002 2998 2997 2994 2991 2985 2981 2976 2975 2974 2971 2965 2961 2957 2956 2954 2953 2947 2943 2941 2938 2936 2933 2928 2927 2927 2920 2911 2906
3092 3088 3084 3080 3076 3071 3066 3060 3055 3049 3042 3037 3031 3026 3019 3015 3009 3005 3002 2999 2997 2994 2990 2986 2983 2981 2977 2973 2970 2966 2960 2958 2956 2954 2952 2949 2940 2936 2934 2932 2931 2929 2926 2922 2917 2912 2907
3089 3085 3081 3076 3072 3068 3062 3056 3051 3045 3039 3032 3027 3022 3018 3011 3007 3004 3000 2998 2995 2993 2989 2988 2984 2981 2977 2973 2970 2966 2961 2958 2954 2951 2950 2947 2942 2936 2933 2931 2928 2926 2925 2924 2922 2916 2911
3085 3081 3077 3073 3069 3064 3058 3053 3047 3041 3036 3029 3023 3020 3015 3007 3008 3001 2997 2996 2994 2990 2989 2985 2983 2979 2975 2972 2967 2963 2959 2957 2954 2949 2946 2945 2941 2934 2928 2927 2926 2926 2924 2926 2925 2920 2917
3081 3078 3074 3070 3065 3059 3054 3049 3042 3036 3028 3021 3018 3013 3009 3003 3002 2998 2997 2995 2992 2989 2987 2983 2980 2978 2975 2970 2966 2961 2955 2954 2952 2948 2945 2941 2936 2932 2925 2928 2926 2923 2922 2922 2923 2919 2916
3077 3074 3070 3066 3061 3056 3051 3046 3040 3032 3026 3020 3013 3010 3005 3002 2999 2996 2992 2991 2988 2987 2984 2982 2979 2976 2972 2966 2964 2957 2951 2948 2947 2943 2938 2937 2933 2933 2932 2927 2926 2922 2920 2918 2918 2918 2919
3075 3071 3067 3063 3058 3053 3048 3042 3037 3030 3024 3017 3011 3006 3005 3002 2998 2996 2992 2989 2987 2984 2982 2978 2974 2973 2969 2963 2956 2951 2948 2943 2938 2936 2936 2935 2930 2928 2924 2921 2919 2918 2919 2917 2915 2916 2918
3071 3067 3063 3060 3055 3050 3045 3039 3033 3029 3020 3014 3011 3007 3002 2999 2995 2993 2990 2989 2987 2983 2981 2975 2971 2968 2966 2961 2958 2948 2945 2940 2936 2932 2931 2928 2925 2923 2921 2918 2917 2918 2921 2922 2921 2921 2923
3067 3064 3061 3057 3052 3046 3041 3035 3028 3021 3016 3011 3006 3003 2997 2996 2993 2990 2990 2988 2985 2980 2977 2973 2968 2964 2960 2956 2951 2947 2941 2937 2933 2932 2929 2927 2925 2921 2920 2920 2920 2921 2925 2926 2927 2927 2927
3064 3061 3057 3053 3048 3043 3037 3032 3025 3017 3012 3008 3002 2999 2994 2993 2991 2989 2988 2987 2984 2980 2975 2971 2967 2962 2959 2953 2948 2942 2937 2934 2932 2930 2929 2927 2924 2921 2920 2922 2928 2933 2932 2931 2930 2929 2928
3061 3058 3054 3049 3045 3039 3034 3029 3021 3015 3010 3005 3000 2997 2994 2991 2989 2990 2986 2983 2981 2979 2973 2969 2964 2959 2953 2948 2943 2941 2938 2936 2933 2931 2929 2927 2923 2921 2920 2926 2934 2934 2933 2932 2931 2931 2929
3057 3054 3050 3045 3041 3036 3031 3024 3018 3013 3008 3003 2999 2995 2992 2992 2991 2987 2985 2981 2976 2972 2970 2966 2963 2957 2953 2947 2944 2943 2940 2939 2934 2933 2932 2931 2926 2922 2922 2926 2934 2935 2932 2930 2930 2930 2929
3054 3050 3046 3042 3038 3033 3027 3021 3016 3011 3006 3002 2998 2995 2991 2990 2990 2988 2984 2981 2977 2973 2967 2961 2956 2954 2951 2948 2946 2946 2945 2944 2941 2938 2931 2926 2924 2924 2926 2929 2935 2934 2932 2931 2933 2936 2927
3050 3047 3043 3039 3034 3029 3024 3019 3014 3009 3006 3003 2999 2995 2993 2989 2989 2987 2985 2983 2977 2972 2965 2961 2957 2953 2950 2949 2950 2949 2948 2947 2946 2944 2941 2938 2934 2933 2932 2933 2936 2934 2932 2933 2932 2928 2926
3047 3044 3040 3035 3031 3026 3022 3017 3012 3009 3006 3003 2999 2996 2993 2992 2989 2988 2985 2980 2976 2971 2967 2963 2960 2955 2954 2953 2953 2952 2951 2950 2948 2947 2945 2944 2944 2942 2941 2939 2936 2933 2931 2929 2927 2925 2924